Location: Bonaustraße
(48.4603°N, 11.9280°E)
Time: 05:59:03
(UTC+02:00)

Tiangong - Pass Details

Date: 05 October 2021
Orbit: 382 x 385 km, 41.5° (Epoch: 15 October)

Event Time Altitude Azimuth Distance (km) Brightness Sun altitude
Exits shadow 06:39:20 - 240° (WSW) 1,641 3.7 -7.1°
Reaches altitude 10° 06:40:41 10° 219° (SW) 1,396 3.5 -6.9°
Maximum altitude 06:41:32 11° 204° (SSW) 1,346 3.6 -6.8°
Drops below altitude 10° 06:42:24 10° 188° (S) 1,393 3.8 -6.6°
Sets 06:45:46 0° 149° (SSE) 2,241 5.4 -6.1°
